STARLINK-11203, 60117

Orbit data source: Space-Track

STARLINK-11203, 60117 is a payload satellite owned by SpaceX/Seattle (US) in LEO that was launched on Mon, 24 Jun 2024 UTC via an FALCON 9 launch vehicle from the Air Force Western Test Range (AFWTR). Payload-class satellites include a variety of spacecraft equipped with specific instruments for various scientific and technological missions. These include communications satellites like Starlink; space stations such as the ISS; scientific satellites like the Hubble; Earth observation satellites from companies like Planet Labs, Umbra, and HawkEye 360; GPS; miniature CubeSats for education and research; and military/defense satellites.

Loading next visibility...
Identifier
60117, 2024-118E
Orbit
LEO
Country
Flag of USUS
Related business
Manufacturer
SpaceX/Seattle
Mission
Operational Commercial Communications
Bus & Motor
STARLINK V2MD, Unknown motor
Mass
960 kg wet, ~910 kg dry
Launch date (UTC)
2024-06-24 (1 year ago)
Launch vehicle
FALCON 9
Launch site
Air Force Western Test Range (AFWTR)
Object type
Payload
Rocket body
Debris
Shape & HBR
Box + 2 Pan, 18.1 m
Radar Cross Section
36.964 m², Large (>1 m²)

Expand to show TLE details & history
Last TLE update: 12 hours ago

TLE from 12 hours ago
0 STARLINK-11203
1 60117U 24118E   25305.53307790 -.00004840  00000-0 -35104-4 0  9995
2 60117  53.1574 133.1181 0001154  92.9946 267.1204 15.69717628 77862
Epoch: 2025-11-01T12:47Z
TLE epoch observation values (Epoch: 2025-11-01T12:47:37.930Z)
Latitude
-0.00002°
Longitude
-99.85175°
Altitude
360.659 km
Speed
7.694 km/s
True Right ascension
08h 52m 28s
True Declination
0° 00' 00"
Sunlit
Object was in daylight at epoch
Visualization orbit readout
Latitude
Unknown
Longitude
Unknown
Altitude
Unknown
Speed
Unknown
Apparent Right ascension
Unknown
Apparent Declination
Unknown
Sunlit
N/A
Visualization observer readout
Local Sidereal Time
21:02:08
Azimuth
Unknown
Elevation
Unknown
Doppler factor
Unknown
Orbital elements
Apogee altitude
360.744 km
Perigee altitude
359.188 km
Semi-major axis
6,738.103 km
Eccentricity
0.00012
Inclination
53.1574°
RAAN
133.1181°
Arg. of periapsis
92.9946°
True anomaly
267.10719°
Mean anomaly
267.1204°
Eccentric anomaly
267.1138°
Mean motion
3.92407 °/min
Orbital period
91.74 mins
BSTAR
-0.000035104
Loading maneuver chart data...
Computing Atmospheric mass density...
Loading historical data...
Loading historical data...
Loading historical data...
Loading historical data...
Loading historical data...
Loading historical data...
Loading historical data...

Documentation

Showing up to 5 results
|